Powrót do katalogu

OPS 0340

AktywnyMilitariaSSO
NORAD 2125·PAYLOAD·🇺🇸 United States

Wystrzelony Mar 31, 1966 z Vandenberg Space Force Base

Loading…

Następne Przeloty (najbliższe 24 godziny)

TLE

ŚwieżeSource: Space-Track

Epoka: Sep 14, 2026, 09:34 UTC

1 02125U 66026A   26257.39866801  .00000261  00000-0  55811-4 0  9996
2 02125  98.0420  63.0807 0145334 325.1431  34.0317 14.60865173172579

Śledź OPS 0340 w czasie rzeczywistym z AllMySat

Download on the App Store